Time,TemperatureF,DewpointF,PressureIn,WindDirection,WindDirectionDegrees,WindSpeedMPH,WindSpeedGustMPH,Humidity,HourlyPrecipIn,Conditions,Clouds,dailyrainin,SoftwareType,DateUTC
2013-05-16 00:05:00,49.0,45.0,29.95,NNW,342,0.0,0.0,85,0.00,,,0.00,weatherlink.com 1.10,2013-05-16 07:05:00,
2013-05-16 00:20:00,48.6,45.0,29.95,NNW,342,0.0,0.0,87,0.00,,,0.00,weatherlink.com 1.10,2013-05-16 07:20:00,
2013-05-16 00:35:00,48.1,44.0,29.95,NNW,342,0.0,0.0,87,0.00,,,0.00,weatherlink.com 1.10,2013-05-16 07:35:00,
2013-05-16 00:50:00,47.6,44.0,29.95,NNW,342,0.0,0.0,88,0.00,,,0.00,weatherlink.com 1.10,2013-05-16 07:50:00,
2013-05-16 01:05:00,47.3,44.0,29.95,NNW,342,0.0,0.0,88,0.00,,,0.00,weatherlink.com 1.10,2013-05-16 08:05:00,
2013-05-16 01:20:00,47.1,44.0,29.95,NNW,342,0.0,0.0,89,0.00,,,0.00,weatherlink.com 1.10,2013-05-16 08:20:00,
2013-05-16 01:35:00,46.9,44.0,29.95,NNW,342,0.0,0.0,90,0.00,,,0.00,weatherlink.com 1.10,2013-05-16 08:35:00,
2013-05-16 01:50:00,46.6,44.0,29.95,NNW,342,0.0,0.0,90,0.00,,,0.00,weatherlink.com 1.10,2013-05-16 08:50:00,
2013-05-16 02:05:00,46.4,44.0,29.95,NNW,342,0.0,0.0,90,0.00,,,0.00,weatherlink.com 1.10,2013-05-16 09:05:00,
2013-05-16 02:20:00,46.1,44.0,29.95,NNW,342,0.0,0.0,91,0.00,,,0.00,weatherlink.com 1.10,2013-05-16 09:20:00,
2013-05-16 02:35:00,45.7,43.0,29.94,NNW,342,0.0,0.0,91,0.00,,,0.00,weatherlink.com 1.10,2013-05-16 09:35:00,
2013-05-16 02:50:00,45.2,43.0,29.94,NNW,342,0.0,0.0,91,0.00,,,0.00,weatherlink.com 1.10,2013-05-16 09:50:00,
2013-05-16 03:05:00,44.7,42.0,29.94,NNW,342,0.0,0.0,91,0.00,,,0.00,weatherlink.com 1.10,2013-05-16 10:05:00,
2013-05-16 03:20:00,44.0,42.0,29.94,NNW,342,0.0,0.0,92,0.00,,,0.00,weatherlink.com 1.10,2013-05-16 10:20:00,
2013-05-16 03:36:00,43.4,42.0,29.94,NNW,342,0.0,0.0,93,0.00,,,0.00,weatherlink.com 1.10,2013-05-16 10:36:00,
2013-05-16 03:51:00,43.0,41.0,29.94,NNW,342,0.0,0.0,93,0.00,,,0.00,weatherlink.com 1.10,2013-05-16 10:51:00,
2013-05-16 04:06:00,42.8,41.0,29.93,NNW,342,0.0,0.0,94,0.00,,,0.00,weatherlink.com 1.10,2013-05-16 11:06:00,
2013-05-16 04:21:00,42.5,41.0,29.93,NNW,342,0.0,0.0,94,0.00,,,0.00,weatherlink.com 1.10,2013-05-16 11:21:00,
2013-05-16 04:36:00,42.3,41.0,29.93,NNW,342,0.0,0.0,94,0.00,,,0.00,weatherlink.com 1.10,2013-05-16 11:36:00,
2013-05-16 04:51:00,42.3,41.0,29.93,NNW,342,0.0,0.0,95,0.00,,,0.00,weatherlink.com 1.10,2013-05-16 11:51:00,
2013-05-16 05:06:00,42.3,41.0,29.93,NNW,342,0.0,0.0,95,0.00,,,0.00,weatherlink.com 1.10,2013-05-16 12:06:00,
2013-05-16 05:21:00,42.2,41.0,29.93,NNW,342,0.0,0.0,95,0.00,,,0.00,weatherlink.com 1.10,2013-05-16 12:21:00,
2013-05-16 05:36:00,42.2,41.0,29.93,NNW,342,0.0,0.0,95,0.00,,,0.00,weatherlink.com 1.10,2013-05-16 12:36:00,
2013-05-16 05:51:00,42.0,41.0,29.93,NNW,342,0.0,0.0,95,0.00,,,0.00,weatherlink.com 1.10,2013-05-16 12:51:00,
2013-05-16 06:06:00,42.1,41.0,29.93,NNW,342,0.0,0.0,95,0.00,,,0.00,weatherlink.com 1.10,2013-05-16 13:06:00,
2013-05-16 06:21:00,42.4,41.0,29.93,NNW,342,0.0,0.0,96,0.00,,,0.00,weatherlink.com 1.10,2013-05-16 13:21:00,
2013-05-16 06:36:00,42.8,42.0,29.93,NNW,342,0.0,0.0,96,0.00,,,0.00,weatherlink.com 1.10,2013-05-16 13:36:00,
2013-05-16 06:51:00,43.4,42.0,29.93,NNW,342,0.0,0.0,96,0.00,,,0.00,weatherlink.com 1.10,2013-05-16 13:51:00,
2013-05-16 07:06:00,44.0,43.0,29.93,NNW,342,0.0,0.0,96,0.00,,,0.00,weatherlink.com 1.10,2013-05-16 14:06:00,
2013-05-16 07:21:00,44.9,44.0,29.93,NNW,342,0.0,0.0,96,0.00,,,0.00,weatherlink.com 1.10,2013-05-16 14:21:00,
2013-05-16 07:36:00,45.8,45.0,29.93,NNW,342,0.0,0.0,96,0.00,,,0.00,weatherlink.com 1.10,2013-05-16 14:36:00,
2013-05-16 07:51:00,46.9,46.0,29.93,NNW,342,0.0,0.0,95,0.00,,,0.00,weatherlink.com 1.10,2013-05-16 14:51:00,
2013-05-16 08:06:00,48.0,46.0,29.93,NNW,342,0.0,0.0,93,0.00,,,0.00,weatherlink.com 1.10,2013-05-16 15:06:00,
2013-05-16 08:21:00,48.7,46.0,29.93,NNW,342,0.0,0.0,91,0.00,,,0.00,weatherlink.com 1.10,2013-05-16 15:21:00,
2013-05-16 08:36:00,49.2,46.0,29.93,NNW,344,0.0,0.0,89,0.00,,,0.00,weatherlink.com 1.10,2013-05-16 15:36:00,
2013-05-16 08:51:00,49.5,47.0,29.92,NNW,344,0.0,0.0,90,0.00,,,0.00,weatherlink.com 1.10,2013-05-16 15:51:00,
2013-05-16 09:06:00,50.0,47.0,29.92,NNW,344,0.0,0.0,89,0.00,,,0.00,weatherlink.com 1.10,2013-05-16 16:06:00,
2013-05-16 09:21:00,50.6,46.0,29.92,NNW,347,0.0,0.0,85,0.00,,,0.00,weatherlink.com 1.10,2013-05-16 16:21:00,
2013-05-16 09:36:00,51.3,47.0,29.92,NNW,347,0.0,0.0,84,0.00,,,0.00,weatherlink.com 1.10,2013-05-16 16:36:00,
2013-05-16 09:51:00,52.1,47.0,29.92,NNW,348,0.0,0.0,82,0.00,,,0.00,weatherlink.com 1.10,2013-05-16 16:51:00,
2013-05-16 10:06:00,52.6,47.0,29.92,NNW,348,0.0,0.0,82,0.00,,,0.00,weatherlink.com 1.10,2013-05-16 17:06:00,
2013-05-16 10:21:00,53.3,48.0,29.92,NNE,19,0.0,0.0,82,0.00,,,0.00,weatherlink.com 1.10,2013-05-16 17:21:00,
2013-05-16 10:36:00,54.0,48.0,29.91,NNE,23,0.0,0.0,80,0.00,,,0.00,weatherlink.com 1.10,2013-05-16 17:36:00,
2013-05-16 10:51:00,54.5,47.0,29.91,ENE,74,0.0,1.0,76,0.00,,,0.00,weatherlink.com 1.10,2013-05-16 17:51:00,
2013-05-16 11:06:00,55.4,48.0,29.91,ENE,74,0.0,0.0,77,0.00,,,0.00,weatherlink.com 1.10,2013-05-16 18:06:00,
2013-05-16 11:21:00,56.9,48.0,29.90,NNW,336,0.0,1.0,73,0.00,,,0.00,weatherlink.com 1.10,2013-05-16 18:21:00,
2013-05-16 11:36:00,59.4,48.0,29.90,ENE,61,0.0,3.0,65,0.00,,,0.00,weatherlink.com 1.10,2013-05-16 18:36:00,
2013-05-16 11:51:00,61.8,46.0,29.89,SE,124,0.0,3.0,57,0.00,,,0.00,weatherlink.com 1.10,2013-05-16 18:51:00,
2013-05-16 12:07:00,63.8,46.0,29.89,East,88,1.0,5.0,52,0.00,,,0.00,weatherlink.com 1.10,2013-05-16 19:07:00,
2013-05-16 12:22:00,63.2,45.0,29.88,SE,134,1.0,2.0,52,0.00,,,0.00,weatherlink.com 1.10,2013-05-16 19:22:00,
2013-05-16 12:37:00,64.6,44.0,29.87,South,172,0.0,3.0,48,0.00,,,0.00,weatherlink.com 1.10,2013-05-16 19:37:00,
2013-05-16 12:52:00,65.4,44.0,29.87,ESE,103,0.0,3.0,47,0.00,,,0.00,weatherlink.com 1.10,2013-05-16 19:52:00,
2013-05-16 13:07:00,66.9,44.0,29.86,ESE,121,0.0,2.0,43,0.00,,,0.00,weatherlink.com 1.10,2013-05-16 20:07:00,
2013-05-16 13:22:00,67.2,44.0,29.85,NNW,342,2.0,3.0,44,0.00,,,0.00,weatherlink.com 1.10,2013-05-16 20:22:00,
2013-05-16 13:37:00,67.3,45.0,29.84,NNW,340,0.0,1.0,45,0.00,,,0.00,weatherlink.com 1.10,2013-05-16 20:37:00,
2013-05-16 13:52:00,67.7,45.0,29.84,NNW,327,1.0,2.0,44,0.00,,,0.00,weatherlink.com 1.10,2013-05-16 20:52:00,
2013-05-16 14:07:00,66.2,45.0,29.84,NNW,330,0.0,1.0,46,0.00,,,0.00,weatherlink.com 1.10,2013-05-16 21:07:00,
2013-05-16 14:22:00,66.2,43.0,29.83,NE,55,1.0,2.0,43,0.00,,,0.00,weatherlink.com 1.10,2013-05-16 21:22:00,
2013-05-16 14:37:00,66.7,43.0,29.82,WSW,249,0.0,2.0,43,0.00,,,0.00,weatherlink.com 1.10,2013-05-16 21:37:00,
2013-05-16 14:52:00,67.5,40.0,29.82,West,270,0.0,2.0,37,0.00,,,0.00,weatherlink.com 1.10,2013-05-16 21:52:00,
2013-05-16 15:07:00,68.1,43.0,29.82,WSW,247,0.0,2.0,41,0.00,,,0.00,weatherlink.com 1.10,2013-05-16 22:07:00,
2013-05-16 15:22:00,68.1,42.0,29.82,WSW,238,1.0,4.0,39,0.00,,,0.00,weatherlink.com 1.10,2013-05-16 22:22:00,
2013-05-16 15:37:00,68.5,42.0,29.82,North,349,1.0,4.0,39,0.00,,,0.00,weatherlink.com 1.10,2013-05-16 22:37:00,
2013-05-16 15:52:00,67.2,42.0,29.82,East,97,0.0,2.0,40,0.00,,,0.00,weatherlink.com 1.10,2013-05-16 22:52:00,
2013-05-16 16:07:00,65.5,45.0,29.83,East,101,0.0,3.0,48,0.00,,,0.00,weatherlink.com 1.10,2013-05-16 23:07:00,
2013-05-16 16:22:00,62.9,44.0,29.84,East,92,1.0,4.0,50,0.00,,,0.00,weatherlink.com 1.10,2013-05-16 23:22:00,
2013-05-16 16:37:00,60.5,48.0,29.84,North,5,1.0,3.0,64,0.00,,,0.00,weatherlink.com 1.10,2013-05-16 23:37:00,
2013-05-16 16:52:00,58.1,51.0,29.84,WSW,240,0.0,2.0,78,0.00,,,0.00,weatherlink.com 1.10,2013-05-16 23:52:00,
2013-05-16 17:07:00,57.1,50.0,29.84,SSW,204,0.0,0.0,78,0.00,,,0.00,weatherlink.com 1.10,2013-05-17 00:07:00,
2013-05-16 17:22:00,57.7,48.0,29.84,SSW,205,0.0,0.0,71,0.00,,,0.00,weatherlink.com 1.10,2013-05-17 00:22:00,
2013-05-16 17:37:00,58.6,48.0,29.84,SSE,153,0.0,0.0,69,0.00,,,0.00,weatherlink.com 1.10,2013-05-17 00:37:00,
2013-05-16 17:52:00,59.2,49.0,29.83,SE,144,0.0,0.0,68,0.00,,,0.00,weatherlink.com 1.10,2013-05-17 00:52:00,
2013-05-16 18:07:00,58.8,49.0,29.84,SE,144,0.0,0.0,70,0.00,,,0.00,weatherlink.com 1.10,2013-05-17 01:07:00,
2013-05-16 18:22:00,58.1,46.0,29.84,West,260,0.0,1.0,65,0.00,,,0.00,weatherlink.com 1.10,2013-05-17 01:22:00,
2013-05-16 18:37:00,57.7,46.0,29.84,SSW,200,0.0,3.0,66,0.00,,,0.00,weatherlink.com 1.10,2013-05-17 01:37:00,
2013-05-16 18:52:00,57.1,46.0,29.84,East,101,0.0,3.0,67,0.00,,,0.00,weatherlink.com 1.10,2013-05-17 01:52:00,
2013-05-16 19:07:00,56.4,46.0,29.85,North,360,0.0,2.0,68,0.00,,,0.00,weatherlink.com 1.10,2013-05-17 02:07:00,
2013-05-16 19:22:00,56.0,46.0,29.85,ENE,67,0.0,2.0,69,0.00,,,0.00,weatherlink.com 1.10,2013-05-17 02:22:00,
2013-05-16 19:37:00,55.3,46.0,29.86,NNE,13,0.0,3.0,70,0.00,,,0.00,weatherlink.com 1.10,2013-05-17 02:37:00,
2013-05-16 19:52:00,54.4,46.0,29.86,NE,48,0.0,2.0,73,0.00,,,0.00,weatherlink.com 1.10,2013-05-17 02:52:00,
2013-05-16 20:07:00,53.9,45.0,29.86,SW,228,0.0,0.0,73,0.00,,,0.00,weatherlink.com 1.10,2013-05-17 03:07:00,
2013-05-16 20:22:00,53.1,46.0,29.86,SW,214,0.0,0.0,77,0.00,,,0.00,weatherlink.com 1.10,2013-05-17 03:22:00,
2013-05-16 20:37:00,52.2,46.0,29.87,SW,214,0.0,0.0,79,0.00,,,0.00,weatherlink.com 1.10,2013-05-17 03:37:00,
2013-05-16 20:53:00,51.2,46.0,29.87,SW,214,0.0,0.0,81,0.00,,,0.00,weatherlink.com 1.10,2013-05-17 03:53:00,
2013-05-16 21:07:00,50.2,45.0,29.87,SW,214,0.0,0.0,82,0.00,,,0.00,weatherlink.com 1.10,2013-05-17 04:07:00,
2013-05-16 21:22:00,49.3,45.0,29.87,SW,214,0.0,0.0,84,0.00,,,0.00,weatherlink.com 1.10,2013-05-17 04:22:00,
2013-05-16 21:37:00,48.4,44.0,29.88,SW,214,0.0,0.0,85,0.00,,,0.00,weatherlink.com 1.10,2013-05-17 04:37:00,
2013-05-16 21:52:00,47.6,44.0,29.88,SW,214,0.0,0.0,87,0.00,,,0.00,weatherlink.com 1.10,2013-05-17 04:52:00,
2013-05-16 22:07:00,46.8,44.0,29.89,SW,214,0.0,0.0,88,0.00,,,0.00,weatherlink.com 1.10,2013-05-17 05:07:00,
2013-05-16 22:22:00,46.2,43.0,29.89,SW,214,0.0,0.0,89,0.00,,,0.00,weatherlink.com 1.10,2013-05-17 05:22:00,
2013-05-16 22:37:00,45.9,43.0,29.89,SW,214,0.0,0.0,90,0.00,,,0.00,weatherlink.com 1.10,2013-05-17 05:37:00,
2013-05-16 22:52:00,45.8,43.0,29.89,SW,214,0.0,0.0,91,0.00,,,0.00,weatherlink.com 1.10,2013-05-17 05:52:00,
2013-05-16 23:07:00,45.6,43.0,29.89,SW,214,0.0,0.0,91,0.00,,,0.00,weatherlink.com 1.10,2013-05-17 06:07:00,
2013-05-16 23:22:00,45.4,43.0,29.89,SW,214,0.0,0.0,91,0.00,,,0.00,weatherlink.com 1.10,2013-05-17 06:22:00,
2013-05-16 23:37:00,44.9,43.0,29.89,SW,214,0.0,0.0,91,0.00,,,0.00,weatherlink.com 1.10,2013-05-17 06:37:00,
2013-05-16 23:52:00,44.5,42.0,29.89,SW,214,0.0,0.0,92,0.00,,,0.00,weatherlink.com 1.10,2013-05-17 06:52:00,